Flag for Netherlands Weather past 2 weeks in Oss, Netherlands

Now
37 °F

Chilly.


Feels Like: 31 °F
Forecast: 35 / 41 °F
Wind: 8 mph from West

Location: Volkel

Current Time: Dec 25, 2014 at 8:26:47 PM

Latest Report: Dec 25, 2014 at 7:55 PM


Visibility: N/A

Pressure: 30.33 "Hg

Humidity: 93%

Dew point: 36 °F

Location of OssLocation

Historic Weather in Oss — Graph

°F

Oss temperature yesterday

Maximum temperature yesterday: 50 °F (at 12:25 AM)
Minimum temperature yesterday: 39 °F (at 10:55 PM)
Average temperature yesterday: 46 °F

Past Weeks' High & Low Weather Summary

 TemperatureHumidityPressure
High55 °F (Dec 18, 3:55 PM)100% (Dec 11, 12:25 PM)30.36 "Hg (Dec 11, 12:25 PM)
Low28 °F (Dec 14, 5:55 AM)66% (Dec 19, 2:55 PM)29.33 "Hg (Dec 12, 12:55 PM)
Average44 °F88%29.92 "Hg
* Reported Dec 10 6:25 PM — Dec 25 6:55 PM, Oss, Weather by CustomWeather, © 2014

Note: Actual official high and low records may vary slightly from our data, if they occured in-between our weather recording intervals... More about our weather records

Advertising

Oss weather history for previous 24 hours

 ConditionsComfort  
Time TempWeatherWind HumidityBarometerVisibility
6:55 PM
Dec 25
37 °FChilly.7 mph93%30.30 "HgN/A
6:25 PM39 °FChilly.7 mph87%30.30 "HgN/A
5:55 PM37 °FPassing clouds.6 mph93%30.30 "HgN/A
5:25 PM39 °FPartly cloudy.6 mph93%30.27 "HgN/A
4:55 PM39 °FPassing clouds.7 mph93%30.27 "HgN/A
4:25 PM41 °FLight rain. Broken clouds.12 mph87%30.27 "HgN/A
3:55 PM43 °FDrizzle. Broken clouds.5 mph81%30.24 "HgN/A
3:25 PM43 °FBroken clouds.7 mph81%30.24 "HgN/A
2:55 PM43 °FBroken clouds.7 mph81%30.24 "HgN/A
2:25 PM45 °FScattered clouds.9 mph81%30.21 "HgN/A
1:55 PM45 °FBroken clouds.8 mph81%30.21 "HgN/A
1:25 PM43 °FScattered clouds.9 mph87%30.21 "HgN/A
12:55 PM41 °FBroken clouds.8 mph93%30.21 "HgN/A
12:25 PM41 °FBroken clouds.9 mph93%30.21 "HgN/A
11:59 AM41 °FRain showers. More clouds than sun.12 mph93%30.21 "HgN/A
11:55 AM41 °FSprinkles. Cloudy.12 mph93%30.21 "Hg3 mi
11:25 AM45 °FBroken clouds.13 mph81%30.21 "HgN/A
10:59 AM43 °FBroken clouds.12 mph87%30.18 "HgN/A
10:55 AM43 °FBroken clouds.12 mph87%30.18 "HgN/A
10:25 AM43 °FBroken clouds.12 mph87%30.18 "HgN/A
9:55 AM43 °FOvercast.12 mph87%30.18 "HgN/A
9:25 AM41 °FBroken clouds.12 mph87%30.18 "HgN/A
8:55 AM41 °FMostly cloudy.12 mph87%30.15 "HgN/A
8:25 AM41 °FOvercast.13 mph87%30.15 "HgN/A
7:55 AM41 °FPassing clouds.13 mph87%30.15 "HgN/A
7:25 AM41 °FOvercast.13 mph87%30.12 "HgN/A
6:55 AM41 °FPassing clouds.14 mph87%30.12 "HgN/A
6:25 AM41 °FOvercast.13 mph87%30.12 "HgN/A
5:55 AM41 °FOvercast.13 mph81%30.12 "HgN/A
5:25 AM41 °FPassing clouds.12 mph81%30.12 "HgN/A
4:25 AM39 °FChilly.15 mph87%30.12 "HgN/A
3:55 AM41 °FQuite cool.13 mph81%30.12 "HgN/A
3:25 AM39 °FChilly.13 mph87%30.12 "HgN/A
2:55 AM39 °FChilly.12 mph81%30.12 "HgN/A
2:25 AM39 °FChilly.12 mph81%30.12 "HgN/A
1:55 AM39 °FChilly.12 mph81%30.12 "HgN/A
1:25 AM39 °FChilly.12 mph81%30.09 "HgN/A
12:55 AM41 °FQuite cool.13 mph76%30.09 "HgN/A
12:25 AM39 °FChilly.12 mph81%30.09 "HgN/A
11:55 PM
Dec 24
41 °FPassing clouds.13 mph81%30.09 "HgN/A
11:25 PM41 °FPassing clouds.12 mph81%30.09 "HgN/A
10:55 PM39 °FChilly.9 mph81%30.09 "HgN/A
10:25 PM41 °FQuite cool.10 mph81%30.09 "HgN/A
9:55 PM41 °FPassing clouds.9 mph81%30.09 "HgN/A
9:25 PM43 °FQuite cool.9 mph76%30.07 "HgN/A
8:55 PM43 °FPassing clouds.8 mph81%30.07 "HgN/A
8:25 PM43 °FMostly cloudy.7 mph81%30.07 "HgN/A
Weather by CustomWeather, © 2014

See weather overviewHow to use our weather pages